{"data":{"norad_id":59690,"intl_designator":"2024-086J","name":"STARLINK-32106","alt_names":[],"object_type":"PAYLOAD","status":"ACTIVE","operator":null,"country":"US","launch_date":"2024-05-08","launch_site_code":"AFETR","launch_vehicle":null,"mission":null,"orbit_class":"UNKNOWN","rcs_meters":null,"size_class":null,"mass_kg":null,"dimensions":null,"purposes":["comms"],"wikipedia_slug":null,"has_3d_model":false,"image_url":null,"decayed_at":null,"tle_current":{"epoch":"2026-09-21T16:08:29.937408Z","epoch_age_seconds":69976,"freshness":"FRESH","line1":"1 59690U 24086J   26264.67256872  .00000372  00000+0  23040-4 0  9996","line2":"2 59690  43.0044  25.4367 0001552 272.1168  87.9506 15.27578945134177","mean_motion":15.27578945,"eccentricity":0.0001552,"inclination_deg":43.0044,"raan_deg":25.4367,"arg_perigee_deg":272.1168,"mean_anomaly_deg":87.9506,"bstar":2.304e-5,"rev_number":13417,"period_min":94.266813817599,"perigee_km":481.98739851862,"apogee_km":484.1171116634,"semimajor_km":6861.189255091,"source":"CELESTRAK","updated_at":"2026-09-22T09:00:49.033737Z"}}}